User: anonymous   Login
Location: Saluda
(35.2377°N, 82.3468°W)
Time: 14:38:13
(UTC+00:00)
Language:

deb Delta 126 - Orbit

View from above orbital plane
View from above orbital plane
View from above satellite
View from above satellite

Ground track
Ground track

The orbit data is extracted from the following two-line orbital elements,

1 10707U 76077AC  23085.80734053 -.00000060  00000-0 -22724-3 0  9998
2 10707 102.2535 164.5676 0273662 148.3922 329.6069 11.98139011 11220
Epoch (UTC): 26 March 2023 19:22:34
Eccentricity: 0.0273662
inclination: 102.2535°
perigee height: 1468 km
apogee height: 1910 km
right ascension of ascending node: 164.5676°
argument of perigee: 148.3922°
revolutions per day: 11.98139011
mean anomaly at epoch: 329.6069°
orbit number at epoch: 1122

The dashed part of the orbit path shows where the satellite is in the earth's shadow,  

DLR